This is the latest recevied weather packets stored in our database for station/object OK2JCZ-6. If no packets are shown the sender has not sent any weather packets the latest 10 day(s).
| Time | Temp. | Humidity | Pressure | Rain* | Wind** | Luminosity | Snow |
|---|---|---|---|---|---|---|---|
| 1777550077 | 11.67° C | 25% | 1028.4 hPa | 0 mm | - | - | - |
| 1777549780 | 11.67° C | 27% | 1028.3 hPa | 0 mm | - | - | - |
| 1777549477 | 11.67° C | 27% | 1028.4 hPa | 0 mm | - | - | - |
| 1777549177 | 11.11° C | 26% | 1028.4 hPa | 0 mm | - | - | - |
| 1777548877 | 11.11° C | 26% | 1028.5 hPa | 0 mm | - | - | - |
| 1777548577 | 10.56° C | 28% | 1028.5 hPa | 0 mm | - | - | - |
| 1777547977 | 11.11° C | 26% | 1028.7 hPa | 0 mm | - | - | - |
| 1777547680 | 11.11° C | 27% | 1028.7 hPa | 0 mm | - | - | - |
| 1777546777 | 10.56° C | 27% | 1028.8 hPa | 0 mm | - | - | - |
| 1777546477 | 10.56° C | 27% | 1028.9 hPa | 0 mm | - | - | - |
| 1777546177 | 11.11° C | 26% | 1028.9 hPa | 0 mm | - | - | - |
| 1777545277 | 11.11° C | 28% | 1029 hPa | 0 mm | - | - | - |
| 1777544677 | 10.56° C | 25% | 1029.1 hPa | 0 mm | - | - | - |
| 1777544377 | 11.11° C | 26% | 1029.1 hPa | 0 mm | - | - | - |
| 1777544077 | 11.11° C | 25% | 1029.2 hPa | 0 mm | - | - | - |
| 1777543777 | 10.56° C | 25% | 1029.2 hPa | 0 mm | - | - | - |
| 1777543477 | 10.56° C | 26% | 1029.3 hPa | 0 mm | - | - | - |
| 1777543177 | 10.56° C | 25% | 1029.2 hPa | 0 mm | - | - | - |
| 1777542877 | 10.56° C | 26% | 1029.3 hPa | 0 mm | - | - | - |
| 1777542277 | 10.56° C | 26% | 1029.3 hPa | 0 mm | - | - | - |
| 1777541677 | 10.56° C | 26% | 1029.2 hPa | 0 mm | - | - | - |
| 1777541377 | 10° C | 27% | 1029.3 hPa | 0 mm | - | - | - |
| 1777541077 | 10° C | 27% | 1029.3 hPa | 0 mm | - | - | - |
| 1777540777 | 10° C | 26% | 1029.4 hPa | 0 mm | - | - | - |
| 1777539877 | 10° C | 27% | 1029.5 hPa | 0 mm | - | - | - |
* Rain latest hour (hover to see other rain measurements)
** Current wind speed in m/s (hover to see current wind gust speed)